Flag for Sweden Weather past 2 weeks in Gothenburg, Sweden

Now
77 °F

Sunny.


Feels Like: 79 °F
Forecast: 61 / 82 °F
Wind: 12 mph from West

Location: Gothenburg / Save

Current Time: Jul 23, 2014 at 4:02:00 PM

Latest Report: Jul 23, 2014 at 3:20 PM


Visibility: 10 mi

Pressure: 30.24 "Hg

Humidity: 61%

Dew point: 63 °F

Location of GothenburgLocation

Historic Weather in Gothenburg — Graph

°F

Gothenburg temperature yesterday

Maximum temperature yesterday: 82 °F (at 1:50 PM)
Minimum temperature yesterday: 57 °F (at 4:50 AM)
Average temperature yesterday: 71 °F

Past Weeks' High & Low Weather Summary

 TemperatureHumidityPressure
High84 °F (Jul 9, 2:50 PM)100% (Jul 14, 10:50 PM)30.30 "Hg (Jul 14, 10:50 PM)
Low48 °F (Jul 19, 4:50 AM)24% (Jul 11, 3:50 PM)29.50 "Hg (Jul 13, 6:50 PM)
Average67 °F69%29.99 "Hg
* Reported Jul 8 1:20 PM — Jul 23 1:20 PM, Gothenburg, Weather by CustomWeather, © 2014

Note: Actual official high and low records may vary slightly from our data, if they occured in-between our weather recording intervals... More about our weather records

Advertising

Gothenburg weather history for previous 24 hours

 ConditionsComfort  
Time TempWeatherWind HumidityBarometerVisibility
1:20 PM
Jul 23
77 °FSunny.10 mph57%30.27 "Hg10 mi
12:50 PM77 °FSunny.13 mph57%30.27 "Hg10 mi
12:20 PM75 °FSunny.12 mph54%30.27 "Hg10 mi
11:20 AM77 °FSunny.7 mph54%30.27 "Hg10 mi
10:50 AM77 °FSunny.2 mph44%30.27 "Hg10 mi
10:20 AM77 °FSunny.1 mph51%30.27 "Hg10 mi
7:50 AM70 °FSunny.2 mph69%30.30 "Hg10 mi
7:20 AM64 °FSunny.No wind83%30.30 "Hg10 mi
6:50 AM63 °FSunny.No wind88%30.30 "Hg10 mi
6:20 AM61 °FSunny.2 mph88%30.30 "Hg10 mi
5:50 AM59 °FSunny.No wind88%30.27 "Hg10 mi
5:20 AM59 °FClear.No wind88%30.27 "Hg10 mi
4:50 AM59 °FPassing clouds.3 mph88%30.27 "HgN/A
4:20 AM59 °FClear.3 mph94%30.27 "Hg10 mi
3:50 AM59 °FClear.1 mph88%30.27 "Hg10 mi
2:50 AM61 °FClear.2 mph88%30.27 "Hg10 mi
2:20 AM59 °FClear.3 mph88%30.27 "Hg10 mi
1:50 AM61 °FClear.No wind88%30.27 "Hg10 mi
6:50 PM
Jul 22
79 °FSunny.6 mph58%30.21 "Hg10 mi
6:20 PM75 °FScattered clouds.3 mph74%30.21 "HgN/A
5:50 PM77 °FLight rain. Partly sunny.7 mph57%30.21 "HgN/A
5:20 PM82 °FSunny.13 mph45%30.18 "Hg10 mi
4:50 PM81 °FSunny.12 mph51%30.21 "Hg10 mi
4:20 PM81 °FSunny.14 mph48%30.21 "Hg10 mi
Weather by CustomWeather, © 2014

See weather overviewHow to use our weather pages